FW5431 Weather Reports


Display with metric or nautical units.
time (UTC)temp
F
wind
direction
speed
MPH
gust
MPH
rain 1hr
in
rain 24hr
in
rain mn
in
humidity
%
barometer
mb
20260901071557 63 113 1.0 2.0 0.00 2.04 0.00 100 1006.0
20260901070116 63 113 2.0 4.0 0.00 2.04 0.00 100 1005.9
20260901064607 63 81 2.0 3.0 0.00 2.04 0.00 100 1005.5
20260901063102 63 165 0.0 2.0 0.00 2.04 0.00 100 1005.8
20260901061607 63 165 0.0 3.0 0.00 2.04 0.00 100 1006.0
20260901060057 63 165 0.0 2.0 0.00 2.04 0.00 100 1006.4
20260901054557 63 165 0.0 1.0 0.00 2.06 0.00 100 1006.8
20260901053108 64 165 0.0 2.0 0.00 2.06 0.00 100 1007.0
20260901051559 64 288 0.0 2.0 0.00 2.06 0.00 100 1007.3
20260901050057 64 288 0.0 1.0 0.00 2.06 0.00 100 1007.4
20260901044615 64 288 0.0 0.0 0.00 2.09 0.00 100 1007.3
20260901043057 64 288 0.0 3.0 0.00 2.09 0.00 100 1007.8
20260901041557 64 281 1.0 4.0 0.00 2.09 0.00 100 1008.1
20260901040104 64 230 1.0 4.0 0.00 2.09 0.00 100 1008.5
20260901040002 64 286 1.0 3.0 0.00 2.09 0.00 100 1008.5
20260901034558 64 275 0.0 3.0 0.01 2.21 0.00 100 1008.2
20260901033058 64 271 2.0 5.0 0.01 2.21 0.00 100 1008.4
20260901031559 64 269 2.0 4.0 0.01 2.21 0.00 100 1007.9
20260901030058 64 18 1.0 4.0 0.01 2.21 0.00 100 1007.1
20260901030003 64 276 0.0 5.0 0.01 2.21 0.00 100 1007.3
20260901024602 64 72 3.0 5.0 0.00 2.21 2.20 100 1008.6
20260901023057 64 75 0.0 4.0 0.00 2.21 2.20 100 1009.2
20260901021610 64 75 1.0 4.0 0.01 2.21 2.20 100 1010.9
20260901020057 64 120 0.0 2.0 0.03 2.21 2.20 100 1011.5
20260901020001 64 120 0.0 1.0 0.03 2.21 2.20 100 1011.5
20260901014558 65 120 0.0 1.0 0.04 2.21 2.20 100 1012.1
20260901013118 65 120 1.0 3.0 0.06 2.21 2.20 100 1012.3
20260901011600 65 91 2.0 3.0 0.13 2.20 2.19 100 1012.1
20260901010058 65 91 1.0 2.0 0.16 2.18 2.17 100 1012.1
20260901010001 65 91 1.0 2.0 0.16 2.18 2.17 100 1012.1
20260901004558 65 90 0.0 5.0 0.18 2.18 2.16 100 1012.0
20260901003058 65 290 0.0 4.0 0.19 2.16 2.14 100 1012.1
20260901001605 65 271 1.0 2.0 0.15 2.08 2.06 100 1012.0
20260901000058 65 272 1.0 3.0 0.14 2.02 2.00 100 1011.8
20260901000001 65 272 1.0 3.0 0.14 2.02 2.00 100 1011.8
20260831234559 65 273 0.0 2.0 0.18 2.25 1.98 100 1011.1
20260831233058 65 271 0.0 1.0 0.21 2.22 1.95 100 1010.6
20260831231614 65 271 0.0 1.0 0.18 2.18 1.91 100 1010.8
20260831230101 65 271 0.0 1.0 0.14 2.14 1.87 100 1011.0
20260831224632 65 270 0.0 4.0 0.06 2.06 1.79 100 1011.0
20260831223058 65 204 1.0 2.0 0.00 2.00 1.73 100 1010.7
20260831221608 65 79 0.0 2.0 0.00 2.00 1.73 100 1009.8
20260831220058 65 79 0.0 2.0 0.01 2.00 1.73 100 1009.8
20260831220001 65 79 0.0 2.0 0.02 2.00 1.73 100 1009.8
20260831214603 65 79 0.0 2.0 0.05 2.08 1.73 100 1009.8
20260831213058 65 79 1.0 4.0 0.10 2.08 1.73 100 1009.1
20260831211608 65 1 1.0 4.0 0.15 2.08 1.73 100 1008.9
20260831210004 65 91 2.0 3.0 0.17 2.06 1.71 100 1008.1
20260831204604 65 94 1.0 3.0 0.20 2.04 1.68 100 1009.4
20260831203058 65 215 0.0 2.0 0.15 1.99 1.63 100 1010.4
20260831201600 65 215 0.0 2.0 0.10 1.94 1.58 100 1010.8
20260831200059 65 193 3.0 7.0 0.06 1.90 1.54 100 1010.6
20260831200001 65 172 2.0 8.0 0.05 1.89 1.53 100 1010.6
20260831194606 65 252 3.0 5.0 0.01 1.89 1.48 100 1009.4
20260831193101 65 95 0.0 3.0 0.02 1.89 1.48 100 1008.0
20260831191559 65 57 1.0 4.0 0.03 1.89 1.48 100 1008.2
20260831190115 65 36 1.0 4.0 0.04 1.89 1.48 100 1008.1
20260831184559 65 83 6.0 9.0 0.04 1.94 1.47 100 1007.5
20260831183058 66 65 2.0 4.0 0.05 1.93 1.46 100 1010.4
20260831181558 65 97 0.0 2.0 0.07 1.92 1.45 100 1010.6
20260831180058 65 97 0.0 1.0 0.09 1.91 1.44 100 1010.3
20260831180001 65 97 0.0 1.0 0.09 1.91 1.44 100 1010.3
20260831174558 65 97 0.0 2.0 0.09 1.94 1.43 100 1010.9
20260831173101 65 97 1.0 2.0 0.10 1.92 1.41 100 1011.9
20260831171601 65 97 1.0 3.0 0.09 1.89 1.38 100 1012.4
20260831170105 65 97 1.0 2.0 0.07 1.86 1.35 100 1012.7
20260831170002 65 97 1.0 2.0 0.07 1.86 1.35 100 1012.7
20260831164602 65 98 1.0 4.0 0.07 1.86 1.34 100 1012.6
20260831163058 65 186 1.0 2.0 0.04 1.83 1.31 100 1012.8
20260831161558 65 186 0.0 3.0 0.02 1.81 1.29 100 1013.0
20260831160058 65 59 1.0 2.0 0.01 1.80 1.28 100 1012.6
20260831160001 65 59 1.0 2.0 0.01 1.80 1.28 100 1012.7
20260831154619 65 56 2.0 6.0 0.01 1.91 1.27 100 1013.3
20260831153058 65 348 2.0 7.0 0.01 1.91 1.27 100 1012.9
20260831151611 65 256 1.0 3.0 0.01 1.91 1.27 100 1011.5
20260831150059 64 110 3.0 5.0 0.02 1.91 1.27 100 1012.0
20260831150003 64 103 2.0 5.0 0.02 1.91 1.27 100 1012.1
20260831144558 64 49 4.0 7.0 0.02 2.00 1.26 100 1013.2
20260831143108 64 299 0.0 3.0 0.04 2.00 1.26 100 1012.9
20260831141558 64 37 0.0 2.0 0.07 2.00 1.26 100 1012.8
20260831140058 64 212 1.0 2.0 0.12 2.00 1.25 100 1014.1
20260831140001 64 292 1.0 2.0 0.12 2.00 1.25 100 1014.3
20260831134601 64 76 0.0 2.0 0.15 2.11 1.24 100 1014.2
20260831133058 64 76 0.0 3.0 0.19 2.09 1.22 100 1014.9
20260831131609 64 134 1.0 3.0 0.31 2.06 1.19 100 1015.4
20260831130109 64 360 0.0 3.0 0.32 2.00 1.12 100 1015.5
20260831124602 64 297 2.0 4.0 0.48 2.04 1.09 100 1014.7
20260831123100 64 35 2.0 5.0 0.45 1.98 1.02 100 1015.4
20260831121606 63 132 1.0 3.0 0.34 1.83 0.87 100 1015.0
20260831120057 63 239 3.0 8.0 0.30 1.76 0.80 100 1014.3
20260831120001 63 210 4.0 8.0 0.30 1.75 0.79 100 1014.3
20260831114559 63 290 0.0 6.0 0.18 1.57 0.61 100 1015.0
20260831113101 63 98 1.0 4.0 0.16 1.53 0.56 100 1013.9
20260831111559 63 120 2.0 5.0 0.36 1.49 0.53 100 1014.5
20260831110105 63 134 1.0 6.0 0.32 1.45 0.49 100 1014.7
20260831110001 63 120 1.0 6.0 0.32 1.45 0.49 100 1014.9
20260831104558 63 273 1.0 4.0 0.26 1.40 0.43 100 1014.4
20260831103101 63 155 3.0 6.0 0.23 1.37 0.40 100 1013.5
20260831101603 63 286 4.0 8.0 0.00 1.13 0.17 100 1014.7
20260831100107 63 75 0.0 2.0 0.00 1.13 0.17 100 1012.6
20260831100000 63 75 0.0 2.0 0.00 1.13 0.17 100 1012.7
20260831094624 63 75 0.0 2.0 0.00 1.13 0.17 100 1012.3
20260831093058 63 75 0.0 2.0 0.00 1.13 0.17 100 1012.7
20260831091614 63 75 0.0 2.0 0.00 1.13 0.17 100 1012.8
20260831090059 63 75 1.0 2.0 0.00 1.13 0.17 100 1012.9
20260831090001 63 75 1.0 2.0 0.00 1.13 0.17 100 1012.9
20260831084601 63 75 0.0 2.0 0.00 1.15 0.17 100 1012.9
20260831083059 63 75 1.0 3.0 0.00 1.15 0.17 100 1013.2
20260831081600 63 75 1.0 2.0 0.00 1.15 0.17 100 1012.9
20260831080058 63 129 1.0 2.0 0.00 1.15 0.17 100 1013.1
20260831080002 63 129 1.0 2.0 0.00 1.15 0.17 100 1013.2
20260831074558 63 129 0.0 1.0 0.00 1.15 0.17 100 1013.3
20260831073102 63 129 0.0 2.0 0.01 1.15 0.17 100 1013.5